Flag for Spain Weather past 2 weeks in Barcelona, Barcelona, Spain

45 °F


Feels Like: 38 °F
Forecast: 36 / 56 °F
Wind: 14 mph from Northwest

Location: Barcelona Airport

Current Time: Nov 28, 2015 at 6:14:34 AM

Latest Report: Nov 28, 2015 at 5:30 AM

Visibility: 10 mi

Pressure: 30.01 "Hg

Humidity: 76%

Dew point: 37 °F

Location of BarcelonaLocation

Historic Weather in Barcelona — Graph


Barcelona temperature yesterday

Maximum temperature yesterday: 59 °F (at 12:00 PM)
Minimum temperature yesterday: 43 °F (at 4:30 AM)
Average temperature yesterday: 51 °F

Past Weeks' High & Low Weather Summary

High72 °F (Nov 16, 2:00 PM)93% (Nov 26, 1:00 AM)30.48 "Hg (Nov 26, 1:00 AM)
Low36 °F (Nov 24, 7:30 AM)23% (Nov 21, 5:30 PM)29.56 "Hg (Nov 21, 8:00 AM)
Average54 °F65%30.12 "Hg
* Reported Nov 13 5:00 AM — Nov 28 5:00 AM, Barcelona, Weather by CustomWeather, © 2015

Note: Actual official high and low records may vary slightly from our data, if they occured in-between our weather recording intervals... More about our weather records


Barcelona weather history for previous 24 hours

Time TempWeatherWind HumidityBarometerVisibility
5:00 AM
Sat, Nov 28
45 °FClear.13 mph76%30.01 "Hg10 mi
4:30 AM45 °FClear.12 mph76%30.01 "Hg10 mi
4:00 AM45 °FClear.14 mph76%30.01 "Hg10 mi
3:30 AM45 °FClear.14 mph76%30.01 "Hg10 mi
3:00 AM45 °FClear.13 mph76%30.01 "Hg10 mi
2:30 AM45 °FClear.10 mph76%30.01 "Hg10 mi
2:00 AM45 °FClear.12 mph76%30.01 "Hg10 mi
1:30 AM45 °FClear.12 mph81%30.01 "Hg10 mi
1:00 AM46 °FClear.12 mph76%30.01 "Hg10 mi
12:30 AM46 °FClear.13 mph76%30.01 "Hg10 mi
12:00 AM48 °FClear.10 mph71%30.01 "Hg10 mi
11:30 PM
Fri, Nov 27
48 °FPassing clouds.9 mph71%30.01 "HgN/A
11:00 PM48 °FPassing clouds.9 mph71%30.01 "HgN/A
10:30 PM46 °FPassing clouds.9 mph82%30.01 "HgN/A
10:00 PM48 °FPassing clouds.7 mph76%29.98 "HgN/A
9:30 PM48 °FPassing clouds.6 mph76%29.98 "HgN/A
9:00 PM48 °FPassing clouds.6 mph76%29.98 "HgN/A
8:30 PM50 °FPassing clouds.5 mph76%29.98 "HgN/A
8:00 PM52 °FPassing clouds.6 mph67%29.98 "HgN/A
7:30 PM54 °FPassing clouds.7 mph63%29.98 "HgN/A
7:00 PM54 °FPassing clouds.6 mph63%29.98 "HgN/A
6:30 PM55 °FPassing clouds.7 mph67%29.95 "HgN/A
6:00 PM55 °FPassing clouds.7 mph63%29.95 "HgN/A
5:30 PM57 °FPassing clouds.12 mph59%29.95 "HgN/A
5:00 PM59 °FPassing clouds.14 mph59%29.95 "HgN/A
4:30 PM59 °FPassing clouds.16 mph59%29.95 "HgN/A
4:00 PM59 °FPassing clouds.17 mph59%29.92 "HgN/A
3:30 PM59 °FPassing clouds.17 mph59%29.95 "HgN/A
3:00 PM59 °FPassing clouds.14 mph63%29.95 "HgN/A
2:30 PM59 °FPassing clouds.13 mph68%29.95 "HgN/A
2:00 PM59 °FPassing clouds.13 mph63%29.95 "HgN/A
1:30 PM59 °FPassing clouds.10 mph68%29.95 "HgN/A
1:00 PM59 °FPassing clouds.9 mph63%29.98 "HgN/A
12:30 PM59 °FPassing clouds.8 mph59%29.98 "HgN/A
12:00 PM59 °FPassing clouds.3 mph59%29.98 "HgN/A
11:30 AM55 °FPassing clouds.5 mph67%30.01 "HgN/A
11:00 AM52 °FPassing clouds.7 mph72%29.98 "HgN/A
10:30 AM50 °FPassing clouds.10 mph76%29.98 "HgN/A
10:00 AM48 °FScattered clouds.12 mph82%29.98 "HgN/A
9:30 AM46 °FScattered clouds.12 mph82%29.98 "HgN/A
9:00 AM46 °FScattered clouds.13 mph82%29.98 "HgN/A
7:30 AM46 °FPassing clouds.10 mph82%29.95 "HgN/A
7:00 AM46 °FPassing clouds.9 mph82%29.95 "HgN/A
6:30 AM45 °FPassing clouds.12 mph87%29.95 "HgN/A
6:00 AM45 °FPassing clouds.12 mph81%29.95 "HgN/A
Weather by CustomWeather, © 2015

See weather overviewHow to use our weather pages